Project,Study,Ord_Occ,Event_Num,Date_Time_UTC,Date_Time_PST,Lat_Dec,Lon_Dec,Sta_ID,Line,Sta,Depth,Pressure,Temp0,Temp1,Salt0,CorrSalt0,Salt1,CorrSalt1,O2ml/L,AveCorrO2ml/L,StaCorrO2ml/L,FluorV,AveEstChl,StaEstChl,ISUSV,AveEstNO3,StaEstNO3,SigThetaTS0,SigThetaTS1,BAT,XMiss,SPAR,PAR,BTL_Depth,BTL_Temp,BTL_Salt,BTL_O2ml/L,BTL_Chl,BTL_Pha,BTL_NO3
CalCOFI,0604NH,1,5,01-Apr-2006 19:44:41,01-Apr-2006 11:44:41,32.96116,-117.30818,093.3 026.7,093.3,026.7,1.000,1.007,14.5606,14.5617,33.4300,33.4248,33.4319,33.4261,5.68067,6.57,6.59,0.0978,0.22,0.58,0.2440,0.00,1.478,24.8562,24.8574,0.4822,88.6435,2.1510e+03,2.2209e+02,2,14.60 ,33.426, 6.52,.88,.16,.0
CalCOFI,0604NH,1,5,01-Apr-2006 19:45:17,01-Apr-2006 11:45:17,32.96132,-117.30818,093.3 026.7,093.3,026.7,2.000,2.014,14.5131,14.5065,33.4277,33.4225,33.4295,33.4237,5.68430,6.57,6.60,0.1038,0.24,0.57,0.2269,0.00,0.989,24.8645,24.8673,0.4842,88.5986,2.1455e+03,1.9672e+02,,,,,,,
CalCOFI,0604NH,1,5,01-Apr-2006 19:45:25,01-Apr-2006 11:45:25,32.96136,-117.30818,093.3 026.7,093.3,026.7,3.000,3.021,14.4944,14.5012,33.4288,33.4236,33.4302,33.4244,5.68758,6.57,6.60,0.0978,0.22,0.58,0.1802,0.00,0.000,24.8693,24.8690,0.4895,88.4811,2.1445e+03,1.6596e+02,,,,,,,
CalCOFI,0604NH,1,5,01-Apr-2006 19:45:29,01-Apr-2006 11:45:29,32.96137,-117.30817,093.3 026.7,093.3,026.7,4.000,4.028,14.5012,14.5038,33.4284,33.4232,33.4300,33.4242,5.68984,6.58,6.61,0.1065,0.25,0.57,0.2099,0.00,0.503,24.8677,24.8684,0.4897,88.4779,2.1445e+03,1.4543e+02,,,,,,,
CalCOFI,0604NH,1,5,01-Apr-2006 19:45:32,01-Apr-2006 11:45:32,32.96138,-117.30816,093.3 026.7,093.3,026.7,5.000,5.036,14.4793,14.4823,33.4276,33.4224,33.4299,33.4241,5.70189,6.59,6.62,0.1155,0.27,0.56,0.2435,0.00,1.464,24.8717,24.8729,0.4912,88.4442,2.1445e+03,1.2437e+02,,,,,,,
CalCOFI,0604NH,1,5,01-Apr-2006 19:45:34,01-Apr-2006 11:45:34,32.96138,-117.30816,093.3 026.7,093.3,026.7,6.000,6.043,14.4748,14.4838,33.4284,33.4232,33.4296,33.4238,5.69253,6.58,6.61,0.1231,0.30,0.55,0.1722,0.00,0.000,24.8733,24.8723,0.4910,88.4486,2.1445e+03,1.0811e+02,,,,,,,
CalCOFI,0604NH,1,5,01-Apr-2006 19:45:39,01-Apr-2006 11:45:39,32.96141,-117.30816,093.3 026.7,093.3,026.7,7.000,7.050,14.4792,14.4773,33.4283,33.4231,33.4294,33.4236,5.70599,6.59,6.63,0.1098,0.26,0.56,0.1663,0.00,0.000,24.8723,24.8736,0.4850,88.5818,2.1445e+03,1.0148e+02,,,,,,,
CalCOFI,0604NH,1,5,01-Apr-2006 19:45:41,01-Apr-2006 11:45:41,32.96142,-117.30816,093.3 026.7,093.3,026.7,8.000,8.057,14.4711,14.4628,33.4278,33.4226,33.4298,33.4240,5.71330,6.60,6.63,0.1222,0.30,0.55,0.1905,0.00,0.000,24.8737,24.8770,0.4912,88.4446,2.1445e+03,9.1170e+01,,,,,,,
CalCOFI,0604NH,1,5,01-Apr-2006 19:45:44,01-Apr-2006 11:45:44,32.96142,-117.30816,093.3 026.7,093.3,026.7,9.000,9.064,14.4531,14.4612,33.4285,33.4233,33.4303,33.4245,5.71667,6.61,6.64,0.1455,0.37,0.54,0.2087,0.00,0.468,24.8781,24.8778,0.4936,88.3909,2.1447e+03,8.2911e+01,9,14.42 ,33.426, 6.57,.88,.16,.0
CalCOFI,0604NH,1,5,01-Apr-2006 19:45:48,01-Apr-2006 11:45:48,32.96144,-117.30816,093.3 026.7,093.3,026.7,10.000,10.071,14.4291,14.4278,33.4273,33.4221,33.4296,33.4238,5.73226,6.63,6.66,0.1535,0.40,0.54,0.1910,0.00,0.000,24.8823,24.8843,0.4984,88.2842,2.1408e+03,7.7679e+01,,,,,,,
CalCOFI,0604NH,1,5,01-Apr-2006 19:45:50,01-Apr-2006 11:45:50,32.96144,-117.30816,093.3 026.7,093.3,026.7,11.000,11.078,14.3921,14.3916,33.4288,33.4236,33.4304,33.4246,5.75012,6.65,6.68,0.1643,0.43,0.55,0.1759,0.00,0.000,24.8913,24.8926,0.5001,88.2472,2.1407e+03,7.1216e+01,,,,,,,
CalCOFI,0604NH,1,5,01-Apr-2006 19:45:52,01-Apr-2006 11:45:52,32.96146,-117.30816,093.3 026.7,093.3,026.7,12.000,12.086,14.3745,14.3767,33.4300,33.4248,33.4312,33.4254,5.76753,6.67,6.70,0.1718,0.46,0.55,0.1638,0.00,0.000,24.8959,24.8964,0.4982,88.2896,2.1407e+03,6.4801e+01,,,,,,,
CalCOFI,0604NH,1,5,01-Apr-2006 19:45:56,01-Apr-2006 11:45:56,32.96148,-117.30816,093.3 026.7,093.3,026.7,13.000,13.093,14.3118,14.3252,33.4324,33.4272,33.4331,33.4273,5.67263,6.56,6.59,0.1936,0.53,0.57,0.1684,0.00,0.000,24.9110,24.9087,0.5040,88.1611,2.1357e+03,6.0441e+01,,,,,,,
CalCOFI,0604NH,1,5,01-Apr-2006 19:45:58,01-Apr-2006 11:45:58,32.96148,-117.30816,093.3 026.7,093.3,026.7,14.000,14.100,13.8278,13.9017,33.4187,33.4135,33.4182,33.4124,5.36818,6.20,6.22,0.3445,1.06,1.12,0.1938,0.00,0.042,25.0007,24.9851,0.5996,86.0837,2.1258e+03,5.6563e+01,,,,,,,
CalCOFI,0604NH,1,5,01-Apr-2006 19:46:00,01-Apr-2006 11:46:00,32.96150,-117.30816,093.3 026.7,093.3,026.7,15.000,15.107,13.3522,13.3792,33.4273,33.4221,33.4261,33.4203,5.18048,5.98,5.99,0.4524,1.47,1.94,0.1847,0.00,0.000,25.1047,25.0984,0.6512,84.9763,2.1214e+03,5.1968e+01,15,13.63 ,33.440, 6.35,1.92,.34,.1
CalCOFI,0604NH,1,5,01-Apr-2006 19:46:03,01-Apr-2006 11:46:03,32.96150,-117.30816,093.3 026.7,093.3,026.7,16.000,16.114,13.1278,13.2263,33.4169,33.4117,33.4237,33.4179,4.63374,5.34,5.34,0.4668,1.52,2.07,0.1856,0.00,0.000,25.1415,25.1272,0.6481,85.0455,2.1214e+03,4.6330e+01,,,,,,,
CalCOFI,0604NH,1,5,01-Apr-2006 19:46:05,01-Apr-2006 11:46:05,32.96151,-117.30816,093.3 026.7,093.3,026.7,17.000,17.121,12.4713,12.5554,33.4187,33.4135,33.4191,33.4133,4.24492,4.88,4.87,0.3387,1.04,1.09,0.2477,0.00,1.584,25.2718,25.2558,0.5564,87.0138,2.1214e+03,4.1805e+01,,,,,,,
CalCOFI,0604NH,1,5,01-Apr-2006 19:46:07,01-Apr-2006 11:46:07,32.96152,-117.30816,093.3 026.7,093.3,026.7,18.000,18.129,12.3870,12.3964,33.4259,33.4207,33.4238,33.4180,4.11142,4.72,4.71,0.3190,0.96,0.98,0.3334,0.00,4.034,25.2936,25.2901,0.5325,87.5349,2.1214e+03,3.7977e+01,,,,,,,
CalCOFI,0604NH,1,5,01-Apr-2006 19:46:09,01-Apr-2006 11:46:09,32.96152,-117.30817,093.3 026.7,093.3,026.7,19.000,19.136,12.3383,12.3666,33.4284,33.4232,33.4282,33.4224,3.99603,4.59,4.57,0.2902,0.86,0.85,0.4079,1.99,6.165,25.3049,25.2993,0.5017,88.2122,2.1214e+03,3.5960e+01,,,,,,,
CalCOFI,0604NH,1,5,01-Apr-2006 19:46:11,01-Apr-2006 11:46:11,32.96154,-117.30818,093.3 026.7,093.3,026.7,20.000,20.143,12.1988,12.2570,33.4347,33.4295,33.4307,33.4249,3.86137,4.43,4.41,0.2660,0.78,0.75,0.4208,2.34,6.534,25.3364,25.3222,0.4751,88.8012,2.1214e+03,3.5047e+01,20,12.04 ,33.441, 4.25,.91,.26,9.9
CalCOFI,0604NH,1,5,01-Apr-2006 19:46:13,01-Apr-2006 11:46:13,32.96154,-117.30818,093.3 026.7,093.3,026.7,21.000,21.150,12.0692,12.0765,33.4424,33.4372,33.4412,33.4354,3.79363,4.35,4.32,0.2602,0.76,0.73,0.4766,3.86,8.129,25.3669,25.3646,0.4633,89.0642,2.1214e+03,3.4033e+01,,,,,,,
CalCOFI,0604NH,1,5,01-Apr-2006 19:46:15,01-Apr-2006 11:46:15,32.96154,-117.30818,093.3 026.7,093.3,026.7,22.000,22.157,12.0339,12.0402,33.4469,33.4417,33.4457,33.4399,3.75360,4.30,4.28,0.2766,0.81,0.79,0.4996,4.49,8.787,25.3771,25.3750,0.4605,89.1247,2.1214e+03,3.3305e+01,,,,,,,
CalCOFI,0604NH,1,5,01-Apr-2006 19:46:18,01-Apr-2006 11:46:18,32.96156,-117.30818,093.3 026.7,093.3,026.7,23.000,23.165,11.9850,11.9968,33.4500,33.4448,33.4491,33.4433,3.68239,4.22,4.19,0.2873,0.85,0.84,0.5305,5.33,9.671,25.3887,25.3858,0.4559,89.2276,2.1214e+03,3.2957e+01,,,,,,,
CalCOFI,0604NH,1,5,01-Apr-2006 19:46:20,01-Apr-2006 11:46:20,32.96156,-117.30818,093.3 026.7,093.3,026.7,24.000,24.172,11.8725,11.8652,33.4561,33.4509,33.4561,33.4503,3.59403,4.12,4.08,0.3097,0.93,0.94,0.5508,5.89,10.251,25.4146,25.4159,0.4501,89.3579,2.1214e+03,3.2244e+01,,,,,,,
CalCOFI,0604NH,1,5,01-Apr-2006 19:46:21,01-Apr-2006 11:46:21,32.96156,-117.30818,093.3 026.7,093.3,026.7,25.000,25.179,11.7329,11.7248,33.4632,33.4580,33.4635,33.4577,3.49995,4.01,3.97,0.2721,0.80,0.78,0.5700,6.41,10.800,25.4461,25.4478,0.4374,89.6424,2.1214e+03,3.1861e+01,,,,,,,
CalCOFI,0604NH,1,5,01-Apr-2006 19:46:23,01-Apr-2006 11:46:23,32.96156,-117.30818,093.3 026.7,093.3,026.7,26.000,26.186,11.4954,11.5071,33.4786,33.4734,33.4804,33.4746,3.41034,3.90,3.86,0.2626,0.76,0.74,0.6121,7.56,12.004,25.5019,25.5012,0.4055,90.3595,2.1214e+03,3.1402e+01,,,,,,,
CalCOFI,0604NH,1,5,01-Apr-2006 19:46:26,01-Apr-2006 11:46:26,32.96158,-117.30818,093.3 026.7,093.3,026.7,27.000,27.193,11.2891,11.3945,33.5049,33.4997,33.4959,33.4901,3.31731,3.79,3.75,0.2521,0.73,0.71,0.6974,9.88,14.444,25.5600,25.5338,0.3913,90.6803,2.1214e+03,3.0712e+01,,,,,,,
CalCOFI,0604NH,1,5,01-Apr-2006 19:46:28,01-Apr-2006 11:46:28,32.96160,-117.30818,093.3 026.7,093.3,026.7,28.000,28.201,11.2099,11.2057,33.5057,33.5005,33.5050,33.4992,3.26246,3.73,3.69,0.2697,0.79,0.77,0.7500,11.31,15.948,25.5750,25.5752,0.3943,90.6139,2.1245e+03,2.9763e+01,,,,,,,
CalCOFI,0604NH,1,5,01-Apr-2006 19:46:29,01-Apr-2006 11:46:29,32.96160,-117.30818,093.3 026.7,093.3,026.7,29.000,29.208,11.1862,11.1823,33.5126,33.5074,33.5125,33.5067,3.22427,3.68,3.64,0.2627,0.76,0.74,0.7712,11.89,16.554,25.5846,25.5852,0.3931,90.6411,2.1252e+03,2.8473e+01,29,11.00 ,33.520, 3.60,.67,.25,16.5
CalCOFI,0604NH,1,5,01-Apr-2006 19:46:31,01-Apr-2006 11:46:31,32.96160,-117.30818,093.3 026.7,093.3,026.7,30.000,30.215,11.1093,11.1073,33.5318,33.5266,33.5318,33.5260,3.18598,3.64,3.59,0.2586,0.75,0.73,0.7641,11.70,16.351,25.6133,25.6138,0.3934,90.6342,2.1239e+03,2.7566e+01,,,,,,,
CalCOFI,0604NH,1,5,01-Apr-2006 19:46:34,01-Apr-2006 11:46:34,32.96162,-117.30820,093.3 026.7,093.3,026.7,31.000,31.222,11.0203,11.0471,33.5553,33.5501,33.5487,33.5429,3.13425,3.58,3.53,0.2843,0.84,0.82,0.8046,12.80,17.509,25.6476,25.6377,0.3880,90.7567,2.1178e+03,2.6543e+01,,,,,,,
CalCOFI,0604NH,1,5,01-Apr-2006 19:46:36,01-Apr-2006 11:46:36,32.96162,-117.30820,093.3 026.7,093.3,026.7,32.000,32.230,10.9489,10.9399,33.5675,33.5623,33.5679,33.5621,3.08278,3.52,3.47,0.2303,0.65,0.64,0.8159,13.11,17.832,25.6699,25.6718,0.3886,90.7419,2.1176e+03,2.5953e+01,,,,,,,
CalCOFI,0604NH,1,5,01-Apr-2006 19:46:38,01-Apr-2006 11:46:38,32.96162,-117.30820,093.3 026.7,093.3,026.7,33.000,33.237,10.8732,10.8712,33.5772,33.5720,33.5771,33.5713,3.06398,3.49,3.45,0.2512,0.72,0.70,0.8138,13.05,17.772,25.6909,25.6911,0.3827,90.8753,2.1176e+03,2.4747e+01,,,,,,,
CalCOFI,0604NH,1,5,01-Apr-2006 19:46:39,01-Apr-2006 11:46:39,32.96163,-117.30819,093.3 026.7,093.3,026.7,34.000,34.244,10.8735,10.8727,33.5903,33.5851,33.5901,33.5843,3.04659,3.47,3.43,0.2115,0.59,0.60,0.8123,13.01,17.730,25.7010,25.7011,0.3800,90.9379,2.1175e+03,2.3442e+01,,,,,,,
CalCOFI,0604NH,1,5,01-Apr-2006 19:46:42,01-Apr-2006 11:46:42,32.96164,-117.30820,093.3 026.7,093.3,026.7,35.000,35.251,10.8667,10.8702,33.5974,33.5922,33.5947,33.5889,3.01532,3.44,3.39,0.1952,0.53,0.58,0.8370,13.68,18.436,25.7078,25.7051,0.3790,90.9596,2.1110e+03,2.1995e+01,,,,,,,
CalCOFI,0604NH,1,5,01-Apr-2006 19:46:44,01-Apr-2006 11:46:44,32.96166,-117.30820,093.3 026.7,093.3,026.7,36.000,36.259,10.8103,10.8058,33.6050,33.5998,33.6048,33.5990,2.97935,3.39,3.35,0.1629,0.43,0.55,0.8320,13.55,18.293,25.7237,25.7244,0.3810,90.9145,2.1045e+03,2.0445e+01,,,,,,,
CalCOFI,0604NH,1,5,01-Apr-2006 19:46:46,01-Apr-2006 11:46:46,32.96166,-117.30820,093.3 026.7,093.3,026.7,37.000,37.266,10.7701,10.7697,33.6134,33.6082,33.6126,33.6068,2.94568,3.36,3.30,0.1607,0.42,0.54,0.8380,13.71,18.464,25.7374,25.7368,0.3875,90.7665,2.0919e+03,1.9205e+01,,,,,,,
CalCOFI,0604NH,1,5,01-Apr-2006 19:46:48,01-Apr-2006 11:46:48,32.96167,-117.30820,093.3 026.7,093.3,026.7,38.000,38.273,10.6874,10.7082,33.6232,33.6180,33.6197,33.6139,2.90310,3.31,3.25,0.1628,0.43,0.54,0.8456,13.92,18.682,25.7596,25.7532,0.3780,90.9819,2.0805e+03,1.8287e+01,,,,,,,
CalCOFI,0604NH,1,5,01-Apr-2006 19:46:50,01-Apr-2006 11:46:50,32.96168,-117.30820,093.3 026.7,093.3,026.7,39.000,39.281,10.6172,10.6249,33.6360,33.6308,33.6337,33.6279,2.86611,3.26,3.21,0.1453,0.37,0.54,0.8704,14.59,19.391,25.7818,25.7787,0.3699,91.1664,2.0720e+03,1.7976e+01,39,10.62 ,33.630, 3.21,.40,.25,19.6
CalCOFI,0604NH,1,5,01-Apr-2006 19:46:52,01-Apr-2006 11:46:52,32.96168,-117.30820,093.3 026.7,093.3,026.7,40.000,40.288,10.5860,10.5863,33.6406,33.6354,33.6393,33.6335,2.84253,3.23,3.18,0.1441,0.37,0.54,0.8669,14.50,19.291,25.7909,25.7898,0.3688,91.1916,2.0604e+03,1.7352e+01,,,,,,,
CalCOFI,0604NH,1,5,01-Apr-2006 19:46:54,01-Apr-2006 11:46:54,32.96169,-117.30820,093.3 026.7,093.3,026.7,41.000,41.295,10.5751,10.5732,33.6444,33.6392,33.6436,33.6378,2.81705,3.20,3.15,0.1406,0.35,0.54,0.8781,14.80,19.611,25.7958,25.7955,0.3697,91.1714,2.0585e+03,1.6378e+01,,,,,,,
CalCOFI,0604NH,1,5,01-Apr-2006 19:46:56,01-Apr-2006 11:46:56,32.96170,-117.30820,093.3 026.7,093.3,026.7,42.000,42.302,10.5264,10.5366,33.6604,33.6552,33.6558,33.6500,2.81211,3.20,3.14,0.1338,0.33,0.54,0.9004,15.41,20.249,25.8167,25.8114,0.3822,90.8880,2.0587e+03,1.5250e+01,,,,,,,
CalCOFI,0604NH,1,5,01-Apr-2006 19:47:00,01-Apr-2006 11:47:00,32.96172,-117.30821,093.3 026.7,093.3,026.7,43.000,43.310,10.5391,10.5318,33.6576,33.6524,33.6589,33.6531,2.76536,3.14,3.09,0.1354,0.34,0.54,0.9074,15.60,20.449,25.8124,25.8147,0.3705,91.1531,2.0539e+03,1.4271e+01,,,,,,,
CalCOFI,0604NH,1,5,01-Apr-2006 19:47:02,01-Apr-2006 11:47:02,32.96172,-117.30820,093.3 026.7,093.3,026.7,44.000,44.317,10.4924,10.4872,33.6695,33.6643,33.6696,33.6638,2.73856,3.11,3.06,0.1265,0.31,0.55,0.9074,15.60,20.449,25.8297,25.8308,0.3727,91.1040,2.0510e+03,1.3655e+01,,,,,,,
CalCOFI,0604NH,1,5,01-Apr-2006 19:47:03,01-Apr-2006 11:47:03,32.96172,-117.30822,093.3 026.7,093.3,026.7,45.000,45.324,10.4528,10.4519,33.6792,33.6740,33.6784,33.6726,2.72780,3.10,3.04,0.1247,0.30,0.55,0.9077,15.61,20.458,25.8442,25.8437,0.3736,91.0836,2.0535e+03,1.3119e+01,,,,,,,
CalCOFI,0604NH,1,5,01-Apr-2006 19:47:05,01-Apr-2006 11:47:05,32.96174,-117.30822,093.3 026.7,093.3,026.7,46.000,46.332,10.4460,10.4546,33.6824,33.6772,33.6789,33.6731,2.71189,3.08,3.02,0.1529,0.39,0.54,0.9147,15.80,20.658,25.8479,25.8437,0.3726,91.1055,2.0567e+03,1.2328e+01,46,10.40 ,33.685, 3.01,.31,.27,21.0
CalCOFI,0604NH,1,5,01-Apr-2006 19:47:09,01-Apr-2006 11:47:09,32.96176,-117.30821,093.3 026.7,093.3,026.7,47.000,47.339,10.4374,10.4314,33.6830,33.6778,33.6835,33.6777,2.68807,3.05,2.99,0.1227,0.30,0.55,0.9309,16.24,21.121,25.8499,25.8513,0.3748,91.0550,2.0585e+03,1.1561e+01,,,,,,,
CalCOFI,0604NH,1,5,01-Apr-2006 19:47:10,01-Apr-2006 11:47:10,32.96176,-117.30820,093.3 026.7,093.3,026.7,48.000,48.346,10.4070,10.4060,33.6925,33.6873,33.6910,33.6852,2.67574,3.04,2.98,0.1203,0.29,0.55,0.9378,16.43,21.318,25.8625,25.8615,0.3748,91.0548,2.0583e+03,1.0965e+01,,,,,,,
CalCOFI,0604NH,1,5,01-Apr-2006 19:47:11,01-Apr-2006 11:47:11,32.96176,-117.30822,093.3 026.7,093.3,026.7,49.000,49.354,10.4052,10.4049,33.6975,33.6923,33.6955,33.6897,2.67102,3.03,2.97,0.1220,0.29,0.55,0.9576,16.97,21.885,25.8668,25.8653,0.3861,90.7981,2.0548e+03,1.0361e+01,,,,,,,
CalCOFI,0604NH,1,5,01-Apr-2006 19:47:16,01-Apr-2006 11:47:16,32.96178,-117.30822,093.3 026.7,093.3,026.7,50.000,50.361,10.4024,10.4011,33.6974,33.6922,33.6960,33.6902,2.62933,2.98,2.92,0.1212,0.29,0.55,0.9284,16.17,21.050,25.8672,25.8664,0.3865,90.7907,2.0629e+03,9.5927e+00,,,,,,,
CalCOFI,0604NH,1,5,01-Apr-2006 19:47:18,01-Apr-2006 11:47:18,32.96178,-117.30822,093.3 026.7,093.3,026.7,51.000,51.368,10.3175,10.3222,33.7207,33.7155,33.7179,33.7121,2.60742,2.96,2.90,0.1092,0.25,0.56,0.9437,16.59,21.487,25.9000,25.8970,0.3787,90.9673,2.0689e+03,9.0026e+00,,,,,,,
CalCOFI,0604NH,1,5,01-Apr-2006 19:47:19,01-Apr-2006 11:47:19,32.96178,-117.30822,093.3 026.7,093.3,026.7,52.000,52.376,10.2950,10.2975,33.7237,33.7185,33.7233,33.7175,2.59798,2.95,2.89,0.1105,0.26,0.56,0.9667,17.22,22.145,25.9063,25.9055,0.3765,91.0161,2.0742e+03,8.4725e+00,,,,,,,
CalCOFI,0604NH,1,5,01-Apr-2006 19:47:22,01-Apr-2006 11:47:22,32.96181,-117.30822,093.3 026.7,093.3,026.7,53.000,53.383,10.2988,10.2946,33.7262,33.7210,33.7256,33.7198,2.56589,2.91,2.85,0.1152,0.27,0.56,0.9937,17.95,22.917,25.9076,25.9078,0.3823,90.8854,2.0911e+03,7.9903e+00,53,10.29 ,33.721, 2.90,.27,.25,21.9
CalCOFI,0604NH,1,5,01-Apr-2006 19:47:25,01-Apr-2006 11:47:25,32.96182,-117.30822,093.3 026.7,093.3,026.7,54.000,54.390,10.2354,10.2354,33.7504,33.7452,33.7487,33.7429,2.48593,2.82,2.75,0.0960,0.21,0.58,0.9493,16.74,21.647,25.9373,25.9360,0.3877,90.7631,2.1051e+03,7.5384e+00,,,,,,,
CalCOFI,0604NH,1,5,01-Apr-2006 19:47:27,01-Apr-2006 11:47:27,32.96182,-117.30822,093.3 026.7,093.3,026.7,55.000,55.398,10.1692,10.1696,33.7823,33.7771,33.7802,33.7744,2.44373,2.77,2.70,0.0936,0.20,0.58,0.9511,16.79,21.699,25.9736,25.9718,0.3963,90.5680,2.1117e+03,7.1302e+00,,,,,,,
CalCOFI,0604NH,1,5,01-Apr-2006 19:47:32,01-Apr-2006 11:47:32,32.96185,-117.30822,093.3 026.7,093.3,026.7,56.000,56.405,10.1470,10.1533,33.7976,33.7924,33.7924,33.7866,2.40791,2.72,2.66,0.0909,0.20,0.59,0.9776,17.51,22.457,25.9893,25.9841,0.4028,90.4210,2.1158e+03,6.6508e+00,,,,,,,
CalCOFI,0604NH,1,5,01-Apr-2006 19:47:40,01-Apr-2006 11:47:40,32.96187,-117.30824,093.3 026.7,093.3,026.7,57.000,57.413,10.1368,10.1379,33.8052,33.8000,33.8025,33.7967,2.35413,2.66,2.59,0.0912,0.20,0.59,1.0090,18.37,23.355,25.9970,25.9946,0.4078,90.3077,2.1251e+03,6.1766e+00,,,,,,,
CalCOFI,0604NH,1,5,01-Apr-2006 19:47:43,01-Apr-2006 11:47:43,32.96188,-117.30824,093.3 026.7,093.3,026.7,58.000,58.420,10.1258,10.1248,33.8178,33.8126,33.8162,33.8104,2.31894,2.62,2.55,0.0839,0.17,0.60,1.0230,18.75,23.755,26.0086,26.0076,0.4191,90.0525,2.1292e+03,5.7722e+00,,,,,,,
CalCOFI,0604NH,1,5,01-Apr-2006 19:47:44,01-Apr-2006 11:47:44,32.96189,-117.30824,093.3 026.7,093.3,026.7,59.000,59.427,10.1087,10.1052,33.8280,33.8228,33.8278,33.8220,2.29979,2.60,2.53,0.0817,0.17,0.61,1.0237,18.77,23.775,26.0195,26.0200,0.4244,89.9332,2.1290e+03,5.4432e+00,,,,,,,
CalCOFI,0604NH,1,5,01-Apr-2006 19:47:56,01-Apr-2006 11:47:56,32.96196,-117.30825,093.3 026.7,093.3,026.7,60.000,60.435,10.0925,10.0902,33.8385,33.8333,33.8370,33.8312,2.29093,2.59,2.52,0.1037,0.24,0.57,1.0256,18.82,23.829,26.0305,26.0297,0.4287,89.8364,2.1304e+03,5.1042e+00,60,10.10 ,33.829, 2.54,.21,.36,23.6
